CW8540 Weather Reports


time (UTC)temp
C
wind
direction
speed
KPH
gust
KPH
rain 1hr
cm
rain 24hr
cm
rain mn
cm
humidity
%
barometer
mb
20260504034551 8 0 0.0 3.2 0.00 0.00 0.00 46 1012.5
20260504033042 9 325 1.6 6.4 0.00 0.00 0.00 46 1012.2
20260504031540 10 38 0.0 3.2 0.00 0.00 0.00 45 1012.0
20260504030046 10 30 0.0 6.4 0.00 0.00 0.00 44 1011.7
20260504024542 11 322 1.6 8.0 0.00 0.00 0.00 41 1011.5
20260504023043 11 0 1.6 9.7 0.00 0.00 0.00 40 1011.3
20260504021541 12 340 4.8 14.5 0.00 0.00 0.00 40 1011.2
20260504020045 12 342 4.8 14.5 0.00 0.00 0.00 39 1011.0
20260504014558 13 30 6.4 16.1 0.00 0.00 0.00 37 1010.8
20260504013047 14 42 4.8 14.5 0.00 0.00 0.00 36 1010.6
20260504011544 14 38 3.2 14.5 0.00 0.00 0.00 36 1010.4
20260504010040 15 37 3.2 17.7 0.00 0.00 0.00 34 1010.2
20260504004542 15 342 4.8 19.3 0.00 0.00 0.00 32 1010.1
20260504003048 16 360 4.8 17.7 0.00 0.00 0.00 33 1009.9
20260504001545 16 329 11.3 17.7 0.00 0.00 0.00 31 1009.7
20260504000046 16 349 6.4 19.3 0.00 0.00 0.00 30 1009.5
20260503234548 17 360 11.3 20.9 0.00 0.00 0.00 30 1009.4
20260503233040 18 348 9.7 22.5 0.00 0.00 0.00 30 1009.3
20260503231548 17 323 6.4 19.3 0.00 0.00 0.00 31 1009.3
20260503230048 17 360 6.4 16.1 0.00 0.00 0.00 31 1009.3
20260503224545 17 340 4.8 19.3 0.00 0.00 0.00 30 1009.5
20260503223044 18 327 8.0 19.3 0.00 0.00 0.00 30 1009.2
20260503221542 18 346 4.8 19.3 0.00 0.00 0.00 30 1009.2
20260503220049 17 360 9.7 16.1 0.00 0.00 0.00 31 1008.9
20260503214541 19 324 4.8 20.9 0.00 0.00 0.00 29 1009.0
20260503213040 19 312 8.0 41.8 0.00 0.00 0.00 28 1008.5
20260503211547 20 300 9.7 48.3 0.00 0.00 0.00 26 1008.7
20260503210047 20 332 8.0 37.0 0.00 0.00 0.00 29 1008.8
20260503204542 20 333 9.7 38.6 0.00 0.00 0.00 28 1008.7
20260503203041 19 313 9.7 37.0 0.00 0.00 0.00 29 1008.7
20260503201541 19 290 20.9 38.6 0.00 0.00 0.00 27 1008.6
20260503200047 20 350 6.4 29.0 0.00 0.00 0.00 28 1008.7
20260503194543 19 290 12.9 35.4 0.00 0.00 0.00 31 1008.7
20260503193049 19 338 12.9 32.2 0.00 0.00 0.00 29 1008.9
20260503191542 19 5 19.3 40.2 0.00 0.00 0.00 30 1009.0
20260503190041 18 293 25.7 40.2 0.00 0.00 0.00 28 1008.8
20260503184554 19 360 6.4 37.0 0.00 0.00 0.00 30 1008.8
20260503183054 18 281 19.3 35.4 0.00 0.00 0.00 29 1009.1
20260503181544 18 263 8.0 37.0 0.00 0.00 0.00 33 1009.0
20260503180047 18 350 9.7 33.8 0.00 0.00 0.00 33 1009.0
20260503174542 18 285 12.9 27.4 0.00 0.00 0.00 33 1009.0
20260503173058 18 346 9.7 37.0 0.00 0.00 0.00 34 1009.0
20260503171540 17 352 17.7 35.4 0.00 0.00 0.00 37 1008.9
20260503081610 9 333 1.6 4.8 0.00 0.00 0.00 46 1010.2
20260503071549 13 296 12.9 20.9 0.00 0.00 0.00 35 1010.1
20260503054549 9 53 1.6 4.8 0.00 0.00 0.00 64 1009.9
20260503053045 8 0 0.0 1.6 0.00 0.00 0.00 67 1010.0
20260503051543 7 0 0.0 4.8 0.00 0.00 0.00 66 1010.1
20260503050043 8 75 1.6 4.8 0.00 0.00 0.00 62 1010.2
20260503044543 9 84 0.0 3.2 0.00 0.00 0.00 60 1010.4
20260503043043 10 0 0.0 1.6 0.00 0.00 0.00 59 1010.3
20260503041546 10 0 0.0 3.2 0.00 0.00 0.00 58 1010.4
20260503040049 12 0 0.0 1.6 0.00 0.00 0.00 50 1010.3